SCP
-0 -0 -0 0 -0 -0 -0 -0 -0 0 -0 0 0 0 0 0 0 0 0 0 0 0 0 0 -0 0 0 -0 -0 -0 -0 -0 -0 -0 -0 -0 0 -0 -0 -0 -0 -0 0 0 0 0 0 0 0
-0 -0 0 -0 0 0 -0 -0 -0 -0 -0 0 0 0 0 -0 -0 -0 0 0 0 0 0 0 -0 0 0 -0 -0 -0 -0 -0 -0 -0 -0 -0 -0 0 -0 0 0 0 0 0 0 0 0 0 0
-0 -0 -0 -0 -0 -0 -0 0 -0 -0 -0 0 0 0 0 -0 -0 -0 0 0 0 -0 0 0 0 0 0 0 -0 -0 0 -0 0 -0 -0 -0 -0 -0 0 -0 -0 -0 -0 -0 0 0 0 0 0
0 0 0 0 0 -0 -0 -0 -0 0 -0 0 0 -0 0 0 0 0 0 0 0 0 0 0 0 0 -0 -0 0 0 -0 0 0 0 0 0 0 -0 -0 -0 -0 -0 -0 -0 -0 -0 0 0 0
0 0 0 -0 -0 0 -0 -0 0 0 0 -0 -0 -0 0 0 -0 0 0 0 0 -0 -0 0 -0 -0 -0 -0 -0 -0 -0 -0 -0 -0 -0 -0 -0 -0 -0 -0 -0 -0 -0 -0 -0 -0 -0 0 0
0 0 0 0 0 0 0 0 0 0 0 -0 -0 0 0 -0 -0 0 0 0 0 0 0 -0 -0 -0 -0 -0 -0 -0 -0 -0 -0 -0 -0 -0 -0 -0 -0 -0 -0 -0 -0 -0 -0 -0 -0 0 0
0 0 0 0 0 0 0 0 -0 -0 0 0 -0 0 0 -0 -0 -0 0 0 0 0 -0 -0 0 -0 -0 -0 -0 -0 -0 -0 -0 -0 -0 -0 -0 -0 -0 -0 -0 -0 -0 -0 -0 -0 0 0 0
0 0 0 0 0 0 0 0 0 0 0 0 0 0 0 0 -0 0 -0 0 -0 -0 0 -0 -0 -0 -0 -0 -0 -0 -0 -0 -0 -0 -0 -0 -0 -0 -0 0 -0 -0 0 -0 -0 0 0 0 0
0 0 0 0 0 0 0 0 0 0 0 0 0 0 0 -0 -0 0 0 0 0 0 0 0 -0 -0 -0 -0 -0 -0 -0 -0 -0 -0 -0 -0 0 0 0 0 0 0 0 0 0 0 0 0 0
0 0 0 0 0 0 0 0 0 0 0 0 0 0 0 0 0 0 0 0 0 0 0 0 0 0 0 0 -0 -0 -0 0 0 0 0 0 0 0 0 0 0 0 0 0 0 0 0 0 0
0 0 0 0 0 0 0 0 0 0 0 0 0 0 0 0 0 0 0 0 0 0 0 0 0 0 0 0 0 0 0 0 0 0 0 0 0 0 0 0 0 0 0 0 0 0 0 0 0
0 0 0 0 0 0 0 0 0 0 0 0 0 0 0 0 0 0 0 0 0 0 0 0 0 0 0 0 0 0 0 0 0 0 0 0 0 0 0 0 0 0 0 0 0 0 0 0 0
0 0 0 0 0 0 0 0 0 0 0 0 0 0 0 0 0 0 0 0 0 0 0 0 0 0 0 0 0 0 0 0 0 0 0 0 0 0 0 0 0 0 0 0 0 0 0 0 0
0 0 0 0 0 0 0 0 0 0 0 0 0 0 0 0 0 0 0 0 0 0 0 0 0 0 0 0 0 0 0 0 0 0 0 0 0 0 0 0 0 0 0 0 0 0 0 0 0
0 0 0 0 0 0 0 0 0 0 0 0 0 0 0 0 0 0 0 0 0 0 0 0 0 0 0 0 0 0 0 0 0 0 0 0 0 0 0 0 0 0 0 0 0 0 0 0 0
0 0 0 0 0 0 0 0 0 0 0 0 0 0 0 0 0 0 0 0 0 0 0 0 0 0 0 0 0 0 0 0 0 0 0 0 0 0 0 0 0 0 0 0 0 0 0 0 0
0 0 0 0 0 0 0 0 0 0 0 0 0 0 0 0 0 0 0 0 0 0 0 0 0 0 0 0 0 0 0 0 0 0 0 0 0 0 0 0 0 0 0 0 0 0 0 0 0
0 0 0 0 0 0 0 0 0 0 0 0 0 0 0 0 0 0 0 0 0 0 0 0 0 0 0 0 0 0 0 0 0 0 0 0 0 0 0 0 0 0 0 0 0 0 0 0 0
0 0 0 0 0 0 0 0 0 0 0 0 0 0 0 0 0 0 0 0 0 0 0 0 0 0 0 0 0 0 0 0 0 0 0 0 0 0 0 0 0 0 0 0 0 0 0 0 0
0 0 0 0 0 0 0 0 0 0 0 0 0 0 0 0 0 0 0 0 0 0 0 0 0 0 0 0 0 0 0 0 0 0 0 0 0 0 0 0 0 0 0 0 0 0 0 0 0
0 0 0 0 0 0 0 -0 0 0 0 0 0 0 0 0 0 0 0 0 0 0 0 0 0 0 0 0 0 0 0 0 0 0 0 0 0 0 0 0 0 0 0 0 0 0 0 0 0
0 0 0 0 0 0 0 0 0 0 0 0 0 0 0 0 0 0 0 0 0 0 0 0 0 0 0 0 0 0 0 0 0 0 0 0 0 0 0 0 0 0 0 0 0 0 0 0 0
0 0 0 0 0 0 0 0 -0 -0 0 0 0 0 0 0 0 0 0 0 0 0 0 0 0 0 0 0 0 0 0 0 0 0 0 0 0 0 0 0 0 0 0 0 0 0 0 0 0
0 0 0 0 0 0 0 0 0 0 0 0 0 0 0 0 0 0 0 0 0 0 0 0 0 0 0 0 0 0 0 0 0 0 0 0 0 0 0 0 0 0 0 0 0 0 0 0 0
0 0 0 0 0 0 0 0 0 0 0 0 0 0 0 0 0 0 0 0 0 0 0 0 0 0 0 0 0 0 0 0 0 0 0 0 0 0 0 0 0 0 0 0 0 0 0 0 0
0 0 0 0 0 0 0 0 0 0 0 0 0 0 0 0 0 0 0 0 0 0 0 0 0 0 0 0 0 0 0 0 0 0 0 0 0 0 0 0 0 0 0 0 0 0 0 0 0
0 0 0 0 0 0 0 0 0 0 0 0 0 0 0 0 0 0 0 0 0 0 0 0 0 0 0 0 0 0 0 0 0 0 0 0 0 0 0 0 0 0 0 0 0 0 0 0 0
0 0 0 0 0 0 0 0 0 0 0 0 0 0 0 0 0 0 0 0 0 0 0 0 0 0 0 0 0 0 0 0 0 0 0 0 0 0 0 0 0 0 0 0 0 0 0 0 0
0 0 0 0 0 0 0 0 0 0 0 0 0 0 0 0 0 0 0 0 0 0 0 0 0 0 0 0 0 0 0 0 0 0 0 0 0 0 0 0 0 0 0 0 0 0 0 0 0
0 0 0 0 0 0 0 0 0 0 0 0 0 0 0 0 0 0 0 0 0 0 0 0 0 0 0 0 0 0 0 0 0 0 0 0 0 0 0 0 0 0 0 0 0 0 0 0 0
Wind_Speed_500mb
30 27 21 14 5 10 11 3 13 9 14 12 17 11 18 30 12 11 31 26 28 17 26 27 25 19 17 15 12 10 12 9 10 14 16 22 22 26 29 21 21 26 29 29 29 29 31 34 35
31 27 15 13 5 11 9 14 16 18 24 12 8 8 12 11 17 30 28 28 29 16 26 24 23 19 15 14 13 14 12 12 13 14 20 26 24 28 28 21 21 22 24 28 28 28 30 32 34
28 17 10 6 8 11 10 13 18 22 11 5 8 11 13 11 16 26 16 36 28 19 18 24 22 19 14 13 12 12 12 12 14 15 18 24 25 29 26 20 14 16 22 27 27 26 28 29 31
29 10 13 4 19 11 17 15 30 21 11 2 2 20 17 21 17 19 35 33 29 24 23 21 22 18 14 10 10 10 9 12 13 15 16 18 20 24 25 22 15 18 20 23 23 23 24 25 26
27 15 7 0 16 10 13 23 25 8 14 20 6 11 16 14 21 20 43 34 32 24 23 24 24 21 17 11 6 10 9 10 13 13 12 14 18 20 20 20 19 16 17 21 20 21 20 21 21
17 7 7 4 16 11 11 16 16 14 15 13 10 11 11 12 20 33 39 31 29 25 21 31 27 24 20 16 9 9 10 9 10 11 9 9 13 15 13 13 16 16 13 18 18 17 16 16 17
12 8 13 13 14 11 11 14 11 11 12 15 7 5 17 21 24 34 39 32 29 30 23 28 30 27 23 19 14 12 10 10 10 10 8 8 7 9 11 13 14 14 11 13 13 13 12 13 14
13 9 13 7 7 8 13 14 2 7 11 16 4 3 14 33 30 34 38 32 31 27 30 21 31 30 27 24 20 18 14 12 10 9 10 8 7 7 9 11 13 15 12 11 10 9 9 10 10
8 6 10 11 3 7 20 11 6 3 10 8 8 19 18 24 29 35 36 33 32 29 30 29 25 30 31 29 26 25 22 18 14 12 11 12 11 12 12 11 12 13 14 12 11 9 7 7 6
8 7 13 11 21 16 23 17 20 6 12 12 12 16 19 19 28 33 36 36 37 34 34 35 36 29 36 31 32 30 28 24 21 17 14 15 16 18 18 15 15 16 16 15 13 11 9 8 7
9 11 21 21 22 23 9 8 2 10 10 23 29 23 27 24 29 31 31 30 34 33 33 36 39 34 35 39 35 33 35 32 30 26 22 23 24 23 22 19 20 20 20 18 16 15 13 12 6
19 30 24 5 11 13 13 12 2 15 9 8 10 32 29 30 31 27 29 33 33 34 35 37 39 42 41 39 39 36 38 37 34 31 27 31 31 28 29 27 26 25 23 23 20 19 19 13 15
20 19 35 8 0 12 12 14 15 22 23 12 6 14 22 25 29 29 25 26 32 37 38 42 42 43 45 42 38 42 41 41 40 37 35 35 35 33 33 33 31 30 29 28 24 23 20 19 19
14 25 41 27 11 10 7 22 24 9 23 27 13 13 22 26 29 26 33 35 39 40 40 41 46 47 47 47 45 44 49 44 41 42 42 38 39 39 38 38 37 33 33 31 30 28 25 23 22
8 16 20 30 24 13 9 15 23 35 34 26 22 26 24 29 29 34 34 35 43 45 43 46 46 50 53 53 51 50 51 50 48 46 46 43 43 44 41 42 42 39 38 35 34 33 31 28 26
1 10 9 10 23 25 19 22 26 35 48 51 45 38 34 40 40 36 34 39 39 46 50 48 50 50 53 57 56 56 54 55 55 51 51 49 46 48 47 47 46 42 43 42 41 38 37 34 32
12 8 20 17 36 16 19 13 25 43 50 37 34 30 36 46 38 34 37 40 44 46 49 51 53 56 53 57 61 60 58 61 58 58 57 56 53 53 53 52 50 48 48 47 45 44 42 39 35
12 15 16 16 12 17 20 21 23 46 39 23 24 27 37 39 35 36 36 40 46 48 50 52 54 57 58 56 62 65 64 65 65 67 65 63 62 59 60 58 57 55 55 53 51 50 46 44 38
18 15 6 16 15 16 18 20 27 48 45 43 43 41 43 41 42 38 40 43 45 51 56 60 62 61 62 63 66 72 75 74 74 76 73 71 71 67 67 66 65 65 65 60 57 55 54 52 44
22 20 14 18 9 3 13 27 26 40 42 43 48 48 48 47 47 48 50 49 53 56 59 64 67 66 68 67 68 72 74 77 79 80 82 79 79 76 74 74 75 73 72 69 66 65 63 60 52
26 23 15 12 10 9 11 37 39 30 64 66 56 59 52 50 53 55 53 48 52 60 60 61 63 65 69 71 69 69 71 74 82 88 90 90 88 85 84 83 82 82 81 79 75 74 73 69 63
27 12 11 4 6 8 8 15 19 16 19 39 59 50 50 51 54 61 60 56 56 38 49 55 55 55 60 67 74 77 79 84 87 91 91 92 93 94 92 91 90 89 89 88 85 82 81 76 74
14 16 18 13 10 10 13 16 8 14 20 23 18 45 39 39 38 33 31 24 22 24 23 26 44 51 54 59 70 77 81 84 84 84 89 91 92 94 94 96 98 99 98 97 95 92 91 89 84
16 13 14 8 4 17 13 18 10 18 21 13 11 23 26 20 21 14 12 8 13 20 29 34 35 45 49 51 59 72 83 84 85 87 85 87 94 97 97 96 100 104 107 105 104 102 99 97 93
23 21 4 4 8 14 22 21 30 21 20 12 15 18 3 4 6 4 6 14 19 25 23 16 13 12 14 22 51 60 70 81 89 90 87 88 94 100 104 103 103 107 109 112 112 112 110 107 105
34 26 10 15 11 7 17 16 13 9 17 15 4 11 4 7 4 8 5 6 7 7 17 14 17 23 28 28 26 28 57 67 81 90 94 93 92 97 99 102 105 108 108 110 115 119 118 116 114
22 34 18 5 3 3 11 12 19 12 13 26 16 15 19 16 15 13 5 5 20 26 25 29 26 28 30 32 32 30 30 39 65 80 89 92 95 98 92 94 101 104 106 107 109 118 122 122 123
21 14 13 8 9 9 11 13 11 4 10 8 15 30 38 24 13 5 13 18 18 21 27 29 34 40 40 43 41 40 41 41 44 57 78 89 94 94 94 98 100 106 108 108 108 113 116 121 123
14 26 15 10 14 10 4 10 21 26 6 11 6 40 32 22 11 1 14 19 18 20 27 31 31 33 37 41 47 51 50 50 52 52 57 70 82 92 97 97 100 105 110 108 111 111 112 111 111
37 17 37 16 15 9 7 11 13 9 9 8 32 29 23 17 6 14 13 15 21 28 28 29 32 34 39 42 47 49 53 55 56 56 56 57 66 76 88 94 97 101 108 111 112 110 109 112 113
Wind_Direction_500mb
345 336 332 303 259 93 114 48 118 119 105 72 57 28 70 48 16 101 137 143 135 168 152 149 141 142 129 123 103 112 126 110 99 109 107 110 113 102 99 97 92 101 102 104 103 96 93 91 94
347 344 323 273 257 112 86 143 104 72 89 90 101 316 67 83 60 128 150 140 144 176 162 151 147 144 133 124 98 107 114 111 113 113 117 117 103 110 106 99 91 104 106 101 99 97 95 93 95
350 322 298 310 17 41 111 93 101 94 110 129 129 70 35 85 103 130 164 142 144 142 172 153 152 147 139 126 99 101 102 107 114 118 115 123 111 112 107 108 101 104 107 102 102 100 97 96 96
333 317 264 262 100 18 104 103 118 131 123 83 33 95 95 104 131 187 148 146 147 165 173 174 161 153 147 141 110 103 96 111 116 119 118 123 123 120 122 122 108 121 103 104 106 102 99 97 98
336 269 281 88 73 92 65 109 140 144 136 144 218 135 101 135 180 172 147 151 158 180 178 180 169 163 160 162 142 120 114 111 121 122 122 123 126 133 131 138 125 117 113 108 109 106 101 99 100
316 267 289 316 112 96 101 130 155 143 126 112 166 117 108 158 182 154 151 155 165 176 189 173 175 172 174 173 170 151 141 135 139 131 135 137 146 140 142 150 142 132 120 113 113 108 106 107 106
336 322 288 348 109 141 123 157 178 138 156 152 115 96 137 152 195 157 151 163 170 182 189 181 182 183 185 187 185 180 168 156 155 157 154 165 164 162 164 153 151 143 140 127 124 116 113 113 110
323 299 295 268 290 110 125 166 12 157 101 117 162 144 161 176 193 163 153 178 176 194 174 190 188 191 194 195 197 194 188 183 183 173 176 185 189 193 181 172 166 160 160 153 146 139 131 121 115
310 277 271 320 103 95 144 152 193 195 109 132 127 77 141 182 175 170 170 180 176 200 184 178 195 185 196 196 204 204 204 208 210 206 195 201 200 206 207 195 184 180 179 175 176 174 165 153 137
238 250 271 39 19 13 151 212 162 180 187 155 140 140 177 176 172 180 185 187 190 203 193 188 197 198 191 201 202 211 215 219 224 225 217 215 218 217 219 213 202 199 198 197 199 200 199 195 183
229 239 273 36 16 358 359 215 168 213 220 197 190 201 187 180 182 202 199 209 206 208 203 201 199 198 207 200 203 209 218 222 226 225 218 222 225 231 233 222 218 212 210 210 212 216 220 227 231
268 268 277 35 360 350 349 345 13 262 285 36 115 210 194 196 200 211 207 207 217 218 215 212 209 203 211 214 204 213 220 226 224 223 225 225 227 231 236 226 224 221 219 221 221 227 235 240 232
254 266 282 238 283 303 303 283 273 289 267 306 231 151 209 212 217 225 226 217 230 232 222 221 218 214 214 225 222 220 228 227 230 224 236 231 229 233 234 238 230 227 224 229 231 237 243 244 245
262 241 259 246 213 227 274 280 269 237 257 251 225 227 208 228 232 240 220 225 228 238 237 231 225 222 221 225 230 223 232 236 234 232 237 234 231 235 234 236 238 235 234 233 234 238 244 244 248
287 303 289 260 207 239 250 261 246 252 262 265 251 231 227 231 236 238 247 236 229 238 238 239 239 229 226 230 228 232 229 234 237 234 237 236 233 236 238 237 237 238 238 239 238 239 244 246 250
294 274 271 231 234 234 223 256 260 252 236 240 243 236 243 246 244 245 238 241 248 237 237 236 239 238 234 232 234 232 234 234 238 237 238 240 235 238 240 240 241 239 239 239 242 241 243 246 248
194 237 222 265 237 199 186 261 261 254 254 262 237 251 248 252 246 241 246 237 241 249 242 240 237 242 239 236 237 238 238 239 241 240 239 240 241 239 241 242 242 242 242 242 242 242 243 245 246
189 201 249 262 216 199 234 245 260 273 286 269 257 241 256 265 258 240 241 249 247 240 247 249 244 242 243 240 238 240 241 241 243 244 242 243 242 240 240 244 242 243 243 243 242 242 242 245 248
258 232 277 234 260 188 232 254 262 273 268 255 252 239 239 252 256 258 253 247 242 248 240 240 245 245 242 240 239 237 240 242 243 245 246 245 244 243 242 243 244 243 245 246 245 244 243 243 238
234 251 252 288 271 69 305 281 282 281 270 252 252 251 250 252 249 251 252 253 250 245 248 245 244 245 248 249 247 245 245 248 250 251 249 247 247 247 245 245 244 245 245 245 243 243 243 244 238
223 233 238 253 342 299 293 279 254 238 250 259 250 247 252 254 259 258 255 256 258 254 254 256 252 247 248 255 254 251 248 247 248 249 250 250 249 249 249 248 246 246 247 247 247 245 244 243 242
223 202 264 295 328 247 90 287 294 317 262 240 249 241 245 251 258 260 262 266 259 274 262 254 258 257 251 250 252 254 253 251 257 256 257 255 253 252 251 250 249 247 248 249 249 247 246 244 242
215 188 217 232 246 310 252 283 255 205 263 273 234 209 215 244 248 258 264 265 254 251 252 247 249 255 256 257 253 256 253 259 263 258 257 260 259 256 255 253 251 249 248 250 250 248 245 245 244
124 94 55 61 42 256 187 218 220 223 231 231 211 206 218 245 238 240 223 272 287 270 259 249 257 245 247 252 256 252 254 259 261 258 253 254 259 260 258 256 255 253 251 250 252 252 249 248 247
144 141 141 203 201 239 170 202 241 282 314 293 294 303 251 105 121 150 285 283 284 258 271 262 271 276 279 278 255 251 259 260 262 264 259 253 255 257 262 264 259 257 256 254 252 251 250 249 246
180 175 169 183 201 242 189 236 229 136 45 52 152 108 113 52 131 167 90 75 46 190 324 314 302 297 298 301 293 280 257 257 260 261 261 258 254 258 262 265 266 264 262 258 254 251 252 251 249
186 216 198 70 12 32 209 263 313 266 293 280 219 264 219 141 144 134 117 347 341 336 329 326 318 314 310 305 291 280 276 271 261 263 264 263 260 256 254 259 260 262 261 260 257 253 252 251 251
186 147 180 190 201 233 242 239 238 146 200 190 170 121 126 135 158 128 15 354 329 326 328 332 329 322 316 311 309 294 285 278 276 269 264 264 265 261 257 254 257 258 258 259 256 254 254 252 250
192 198 206 162 226 201 219 235 191 222 139 162 157 138 140 151 168 313 327 313 307 301 312 318 320 325 325 322 316 309 304 292 285 276 270 267 266 264 262 258 254 258 258 256 253 255 251 248 244
213 210 201 201 203 239 279 251 297 297 326 263 134 135 152 173 194 330 327 327 319 324 326 329 329 329 330 328 329 324 320 310 298 291 283 278 275 270 265 262 259 254 257 259 255 248 245 243 245
Wind_Speed_850mb
30 27 21 14 5 10 11 3 13 9 14 12 17 11 18 30 12 11 31 26 28 17 26 27 25 19 17 15 12 10 12 9 10 14 16 22 22 26 29 21 21 26 29 29 29 29 31 34 35
31 27 15 13 5 11 9 14 16 18 24 12 8 8 12 11 17 30 28 28 29 16 26 24 23 19 15 14 13 14 12 12 13 14 20 26 24 28 28 21 21 22 24 28 28 28 30 32 34
28 17 10 6 8 11 10 13 18 22 11 5 8 11 13 11 16 26 16 36 28 19 18 24 22 19 14 13 12 12 12 12 14 15 18 24 25 29 26 20 14 16 22 27 27 26 28 29 31
29 10 13 4 19 11 17 15 30 21 11 2 2 20 17 21 17 19 35 33 29 24 23 21 22 18 14 10 10 10 9 12 13 15 16 18 20 24 25 22 15 18 20 23 23 23 24 25 26
27 15 7 0 16 10 13 23 25 8 14 20 6 11 16 14 21 20 43 34 32 24 23 24 24 21 17 11 6 10 9 10 13 13 12 14 18 20 20 20 19 16 17 21 20 21 20 21 21
17 7 7 4 16 11 11 16 16 14 15 13 10 11 11 12 20 33 39 31 29 25 21 31 27 24 20 16 9 9 10 9 10 11 9 9 13 15 13 13 16 16 13 18 18 17 16 16 17
12 8 13 13 14 11 11 14 11 11 12 15 7 5 17 21 24 34 39 32 29 30 23 28 30 27 23 19 14 12 10 10 10 10 8 8 7 9 11 13 14 14 11 13 13 13 12 13 14
13 9 13 7 7 8 13 14 2 7 11 16 4 3 14 33 30 34 38 32 31 27 30 21 31 30 27 24 20 18 14 12 10 9 10 8 7 7 9 11 13 15 12 11 10 9 9 10 10
8 6 10 11 3 7 20 11 6 3 10 8 8 19 18 24 29 35 36 33 32 29 30 29 25 30 31 29 26 25 22 18 14 12 11 12 11 12 12 11 12 13 14 12 11 9 7 7 6
8 7 13 11 21 16 23 17 20 6 12 12 12 16 19 19 28 33 36 36 37 34 34 35 36 29 36 31 32 30 28 24 21 17 14 15 16 18 18 15 15 16 16 15 13 11 9 8 7
9 11 21 21 22 23 9 8 2 10 10 23 29 23 27 24 29 31 31 30 34 33 33 36 39 34 35 39 35 33 35 32 30 26 22 23 24 23 22 19 20 20 20 18 16 15 13 12 6
19 30 24 5 11 13 13 12 2 15 9 8 10 32 29 30 31 27 29 33 33 34 35 37 39 42 41 39 39 36 38 37 34 31 27 31 31 28 29 27 26 25 23 23 20 19 19 13 15
20 19 35 8 0 12 12 14 15 22 23 12 6 14 22 25 29 29 25 26 32 37 38 42 42 43 45 42 38 42 41 41 40 37 35 35 35 33 33 33 31 30 29 28 24 23 20 19 19
14 25 41 27 11 10 7 22 24 9 23 27 13 13 22 26 29 26 33 35 39 40 40 41 46 47 47 47 45 44 49 44 41 42 42 38 39 39 38 38 37 33 33 31 30 28 25 23 22
8 16 20 30 24 13 9 15 23 35 34 26 22 26 24 29 29 34 34 35 43 45 43 46 46 50 53 53 51 50 51 50 48 46 46 43 43 44 41 42 42 39 38 35 34 33 31 28 26
1 10 9 10 23 25 19 22 26 35 48 51 45 38 34 40 40 36 34 39 39 46 50 48 50 50 53 57 56 56 54 55 55 51 51 49 46 48 47 47 46 42 43 42 41 38 37 34 32
12 8 20 17 36 16 19 13 25 43 50 37 34 30 36 46 38 34 37 40 44 46 49 51 53 56 53 57 61 60 58 61 58 58 57 56 53 53 53 52 50 48 48 47 45 44 42 39 35
12 15 16 16 12 17 20 21 23 46 39 23 24 27 37 39 35 36 36 40 46 48 50 52 54 57 58 56 62 65 64 65 65 67 65 63 62 59 60 58 57 55 55 53 51 50 46 44 38
18 15 6 16 15 16 18 20 27 48 45 43 43 41 43 41 42 38 40 43 45 51 56 60 62 61 62 63 66 72 75 74 74 76 73 71 71 67 67 66 65 65 65 60 57 55 54 52 44
22 20 14 18 9 3 13 27 26 40 42 43 48 48 48 47 47 48 50 49 53 56 59 64 67 66 68 67 68 72 74 77 79 80 82 79 79 76 74 74 75 73 72 69 66 65 63 60 52
26 23 15 12 10 9 11 37 39 30 64 66 56 59 52 50 53 55 53 48 52 60 60 61 63 65 69 71 69 69 71 74 82 88 90 90 88 85 84 83 82 82 81 79 75 74 73 69 63
27 12 11 4 6 8 8 15 19 16 19 39 59 50 50 51 54 61 60 56 56 38 49 55 55 55 60 67 74 77 79 84 87 91 91 92 93 94 92 91 90 89 89 88 85 82 81 76 74
14 16 18 13 10 10 13 16 8 14 20 23 18 45 39 39 38 33 31 24 22 24 23 26 44 51 54 59 70 77 81 84 84 84 89 91 92 94 94 96 98 99 98 97 95 92 91 89 84
16 13 14 8 4 17 13 18 10 18 21 13 11 23 26 20 21 14 12 8 13 20 29 34 35 45 49 51 59 72 83 84 85 87 85 87 94 97 97 96 100 104 107 105 104 102 99 97 93
23 21 4 4 8 14 22 21 30 21 20 12 15 18 3 4 6 4 6 14 19 25 23 16 13 12 14 22 51 60 70 81 89 90 87 88 94 100 104 103 103 107 109 112 112 112 110 107 105
34 26 10 15 11 7 17 16 13 9 17 15 4 11 4 7 4 8 5 6 7 7 17 14 17 23 28 28 26 28 57 67 81 90 94 93 92 97 99 102 105 108 108 110 115 119 118 116 114
22 34 18 5 3 3 11 12 19 12 13 26 16 15 19 16 15 13 5 5 20 26 25 29 26 28 30 32 32 30 30 39 65 80 89 92 95 98 92 94 101 104 106 107 109 118 122 122 123
21 14 13 8 9 9 11 13 11 4 10 8 15 30 38 24 13 5 13 18 18 21 27 29 34 40 40 43 41 40 41 41 44 57 78 89 94 94 94 98 100 106 108 108 108 113 116 121 123
14 26 15 10 14 10 4 10 21 26 6 11 6 40 32 22 11 1 14 19 18 20 27 31 31 33 37 41 47 51 50 50 52 52 57 70 82 92 97 97 100 105 110 108 111 111 112 111 111
37 17 37 16 15 9 7 11 13 9 9 8 32 29 23 17 6 14 13 15 21 28 28 29 32 34 39 42 47 49 53 55 56 56 56 57 66 76 88 94 97 101 108 111 112 110 109 112 113
Wind_Direction_850mb
345 336 332 303 259 93 114 48 118 119 105 72 57 28 70 48 16 101 137 143 135 168 152 149 141 142 129 123 103 112 126 110 99 109 107 110 113 102 99 97 92 101 102 104 103 96 93 91 94
347 344 323 273 257 112 86 143 104 72 89 90 101 316 67 83 60 128 150 140 144 176 162 151 147 144 133 124 98 107 114 111 113 113 117 117 103 110 106 99 91 104 106 101 99 97 95 93 95
350 322 298 310 17 41 111 93 101 94 110 129 129 70 35 85 103 130 164 142 144 142 172 153 152 147 139 126 99 101 102 107 114 118 115 123 111 112 107 108 101 104 107 102 102 100 97 96 96
333 317 264 262 100 18 104 103 118 131 123 83 33 95 95 104 131 187 148 146 147 165 173 174 161 153 147 141 110 103 96 111 116 119 118 123 123 120 122 122 108 121 103 104 106 102 99 97 98
336 269 281 88 73 92 65 109 140 144 136 144 218 135 101 135 180 172 147 151 158 180 178 180 169 163 160 162 142 120 114 111 121 122 122 123 126 133 131 138 125 117 113 108 109 106 101 99 100
316 267 289 316 112 96 101 130 155 143 126 112 166 117 108 158 182 154 151 155 165 176 189 173 175 172 174 173 170 151 141 135 139 131 135 137 146 140 142 150 142 132 120 113 113 108 106 107 106
336 322 288 348 109 141 123 157 178 138 156 152 115 96 137 152 195 157 151 163 170 182 189 181 182 183 185 187 185 180 168 156 155 157 154 165 164 162 164 153 151 143 140 127 124 116 113 113 110
323 299 295 268 290 110 125 166 12 157 101 117 162 144 161 176 193 163 153 178 176 194 174 190 188 191 194 195 197 194 188 183 183 173 176 185 189 193 181 172 166 160 160 153 146 139 131 121 115
310 277 271 320 103 95 144 152 193 195 109 132 127 77 141 182 175 170 170 180 176 200 184 178 195 185 196 196 204 204 204 208 210 206 195 201 200 206 207 195 184 180 179 175 176 174 165 153 137
238 250 271 39 19 13 151 212 162 180 187 155 140 140 177 176 172 180 185 187 190 203 193 188 197 198 191 201 202 211 215 219 224 225 217 215 218 217 219 213 202 199 198 197 199 200 199 195 183
229 239 273 36 16 358 359 215 168 213 220 197 190 201 187 180 182 202 199 209 206 208 203 201 199 198 207 200 203 209 218 222 226 225 218 222 225 231 233 222 218 212 210 210 212 216 220 227 231
268 268 277 35 360 350 349 345 13 262 285 36 115 210 194 196 200 211 207 207 217 218 215 212 209 203 211 214 204 213 220 226 224 223 225 225 227 231 236 226 224 221 219 221 221 227 235 240 232
254 266 282 238 283 303 303 283 273 289 267 306 231 151 209 212 217 225 226 217 230 232 222 221 218 214 214 225 222 220 228 227 230 224 236 231 229 233 234 238 230 227 224 229 231 237 243 244 245
262 241 259 246 213 227 274 280 269 237 257 251 225 227 208 228 232 240 220 225 228 238 237 231 225 222 221 225 230 223 232 236 234 232 237 234 231 235 234 236 238 235 234 233 234 238 244 244 248
287 303 289 260 207 239 250 261 246 252 262 265 251 231 227 231 236 238 247 236 229 238 238 239 239 229 226 230 228 232 229 234 237 234 237 236 233 236 238 237 237 238 238 239 238 239 244 246 250
294 274 271 231 234 234 223 256 260 252 236 240 243 236 243 246 244 245 238 241 248 237 237 236 239 238 234 232 234 232 234 234 238 237 238 240 235 238 240 240 241 239 239 239 242 241 243 246 248
194 237 222 265 237 199 186 261 261 254 254 262 237 251 248 252 246 241 246 237 241 249 242 240 237 242 239 236 237 238 238 239 241 240 239 240 241 239 241 242 242 242 242 242 242 242 243 245 246
189 201 249 262 216 199 234 245 260 273 286 269 257 241 256 265 258 240 241 249 247 240 247 249 244 242 243 240 238 240 241 241 243 244 242 243 242 240 240 244 242 243 243 243 242 242 242 245 248
258 232 277 234 260 188 232 254 262 273 268 255 252 239 239 252 256 258 253 247 242 248 240 240 245 245 242 240 239 237 240 242 243 245 246 245 244 243 242 243 244 243 245 246 245 244 243 243 238
234 251 252 288 271 69 305 281 282 281 270 252 252 251 250 252 249 251 252 253 250 245 248 245 244 245 248 249 247 245 245 248 250 251 249 247 247 247 245 245 244 245 245 245 243 243 243 244 238
223 233 238 253 342 299 293 279 254 238 250 259 250 247 252 254 259 258 255 256 258 254 254 256 252 247 248 255 254 251 248 247 248 249 250 250 249 249 249 248 246 246 247 247 247 245 244 243 242
223 202 264 295 328 247 90 287 294 317 262 240 249 241 245 251 258 260 262 266 259 274 262 254 258 257 251 250 252 254 253 251 257 256 257 255 253 252 251 250 249 247 248 249 249 247 246 244 242
215 188 217 232 246 310 252 283 255 205 263 273 234 209 215 244 248 258 264 265 254 251 252 247 249 255 256 257 253 256 253 259 263 258 257 260 259 256 255 253 251 249 248 250 250 248 245 245 244
124 94 55 61 42 256 187 218 220 223 231 231 211 206 218 245 238 240 223 272 287 270 259 249 257 245 247 252 256 252 254 259 261 258 253 254 259 260 258 256 255 253 251 250 252 252 249 248 247
144 141 141 203 201 239 170 202 241 282 314 293 294 303 251 105 121 150 285 283 284 258 271 262 271 276 279 278 255 251 259 260 262 264 259 253 255 257 262 264 259 257 256 254 252 251 250 249 246
180 175 169 183 201 242 189 236 229 136 45 52 152 108 113 52 131 167 90 75 46 190 324 314 302 297 298 301 293 280 257 257 260 261 261 258 254 258 262 265 266 264 262 258 254 251 252 251 249
186 216 198 70 12 32 209 263 313 266 293 280 219 264 219 141 144 134 117 347 341 336 329 326 318 314 310 305 291 280 276 271 261 263 264 263 260 256 254 259 260 262 261 260 257 253 252 251 251
186 147 180 190 201 233 242 239 238 146 200 190 170 121 126 135 158 128 15 354 329 326 328 332 329 322 316 311 309 294 285 278 276 269 264 264 265 261 257 254 257 258 258 259 256 254 254 252 250
192 198 206 162 226 201 219 235 191 222 139 162 157 138 140 151 168 313 327 313 307 301 312 318 320 325 325 322 316 309 304 292 285 276 270 267 266 264 262 258 254 258 258 256 253 255 251 248 244
213 210 201 201 203 239 279 251 297 297 326 263 134 135 152 173 194 330 327 327 319 324 326 329 329 329 330 328 329 324 320 310 298 291 283 278 275 270 265 262 259 254 257 259 255 248 245 243 245